STARLINK-32921, 62920

Orbit data source: Space-Track

STARLINK-32921, 62920 is a payload satellite owned by SpaceX/Seattle (US) in LEO that was launched on Sat, 08 Feb 2025 UTC via an FALCON 9 launch vehicle from the Air Force Eastern Test Range (AFETR). Payload-class satellites include a variety of spacecraft equipped with specific instruments for various scientific and technological missions. These include communications satellites like Starlink; space stations such as the ISS; scientific satellites like the Hubble; Earth observation satellites from companies like Planet Labs, Umbra, and HawkEye 360; GPS; miniature CubeSats for education and research; and military/defense satellites.

Loading next visibility...
Identifier
62920, 2025-027P
Orbit
LEO
Country
Flag of USUS
Related business
Manufacturer
SpaceX/Seattle
Mission
Operational Commercial Communications
Bus & Motor
STARLINK V2M, Unknown motor
Mass
730 kg wet, ~700 kg dry
Launch date (UTC)
2025-02-08 (9 months ago)
Launch vehicle
FALCON 9
Launch site
Air Force Eastern Test Range (AFETR)
Object type
Payload
Rocket body
Debris
Shape & HBR
Box + 2 Pan, 17.7 m
Radar Cross Section
33.884 m², Large (>1 m²)

Expand to show TLE details & history
Last TLE update: 12 hours ago

TLE from 12 hours ago
0 STARLINK-32921
1 62920U 25027P   25302.85010162  .00030407  00000-0  11088-2 0  9994
2 62920  42.9954 147.6449 0001278 129.7776 230.3189 15.27613052 41537
Epoch: 2025-10-29T20:24Z
TLE epoch observation values (Epoch: 2025-10-29T20:24:08.779Z)
Latitude
0.00001°
Longitude
163.19101°
Altitude
483.285 km
Speed
7.625 km/s
True Right ascension
09h 50m 34s
True Declination
0° 00' 00"
Sunlit
Object was in daylight at epoch
Visualization orbit readout
Latitude
Unknown
Longitude
Unknown
Altitude
Unknown
Speed
Unknown
Apparent Right ascension
Unknown
Apparent Declination
Unknown
Sunlit
N/A
Visualization observer readout
Local Sidereal Time
04:11:38
Azimuth
Unknown
Elevation
Unknown
Doppler factor
Unknown
Orbital elements
Apogee altitude
485.773 km
Perigee altitude
484.019 km
Semi-major axis
6,863.033 km
Eccentricity
0.00013
Inclination
42.9954°
RAAN
147.6449°
Arg. of periapsis
129.7776°
True anomaly
230.30763°
Mean anomaly
230.3189°
Eccentric anomaly
230.31327°
Mean motion
3.81741 °/min
Orbital period
94.3 mins
BSTAR
0.0011088
Loading maneuver chart data...
Computing Atmospheric mass density...
Loading historical data...
Loading historical data...
Loading historical data...
Loading historical data...
Loading historical data...
Loading historical data...
Loading historical data...

Documentation

Showing up to 5 results
|